Location: Auttagershofen
(48.1940°N, 10.0237°E)
Time: 06:41:47
(UTC+00:00)

Cosmos 407 Rocket - Pass Details

Date: 18 January 2026
Orbit: 738 x 782 km, 74.0° (Epoch: 17 February)

Event Time Altitude Azimuth Distance (km) Brightness Sun altitude
Rises 05:13:51 0° 193° (SSW) 3,169 6.7 -17.8°
Reaches altitude 10° 05:16:11 10° 191° (S) 2,255 5.9 -17.4°
Maximum altitude 05:21:16 69° 109° (ESE) 804 3.8 -16.6°
Drops below altitude 10° 05:26:26 10° 27° (NNE) 2,298 6.1 -15.8°
Sets 05:28:50 0° 25° (NNE) 3,235 6.9 -15.4°
